Starlink 5901

operational
NORAD ID: 55999 Int'l Des: 2023-042 Owner: SPXS Country: US Constellation: starlink
LEOCIRCULAR

关于 Starlink 5901

正在加载描述...

实时位置

正在加载3D地球...

即将过境

高度历史

Altitude vs Time

uPlot chart will show altitude changes over time

两行轨道根数

1 55999U 23042P 25303.67830444 .00000631 00000-0 61761-4 0 9992
2 55999 43.0017 42.5292 0001385 272.3469 87.7214 15.02538471143359
Epoch: Oct 30, 2025 • Age: 12 hours

当前状态

高度 567.9 km
速度 7.58 km/s
星下点 -33.87°S, 158.45°E
发射日期 Mar 24, 2023
运行时间 2.6 years
类型 internet

技术详情

分类 Payload
质量 305.00 kg
干质量 290.00 kg
总质量 305.00 kg
长度 0.20 m
直径 2.80 m
跨度 9.00 m
形状 Box + pan
制造商 SPXS
平台类型 Starlink
阶段状态 In Orbit
所有者/国家 SPXS/US

大型星座

Loading constellations...